EHI
60 58 57 57 53 49 43 38 32 24 18 16 12 6 2 1 1 1 0 0 0 0 0 0 0 0 0 0 0 0 0 0 0 0 0 0 0 0 0 0 0 0 0
61 59 56 53 49 46 41 36 29 24 19 15 10 5 1 1 1 0 0 0 0 0 0 0 0 0 0 0 0 0 0 0 0 0 0 0 0 0 0 0 0 0 0
61 58 53 48 44 42 38 32 26 21 18 13 8 5 3 1 1 0 0 0 0 0 0 0 0 0 0 0 0 0 0 0 0 0 0 0 0 0 0 0 0 0 0
59 56 52 47 43 39 35 29 22 17 14 11 8 6 5 2 1 1 1 1 0 0 0 0 0 0 0 0 0 0 0 0 0 0 0 0 0 0 0 0 0 0 0
55 54 51 47 42 36 31 26 20 16 12 9 7 6 5 2 1 1 1 1 0 0 0 0 0 0 0 0 0 0 0 0 0 0 0 0 0 0 0 0 0 0 0
52 50 47 43 38 32 27 25 22 17 12 9 6 4 3 1 0 0 0 0 0 0 0 0 0 0 0 0 0 0 0 0 0 0 0 0 0 0 0 0 0 0 0
48 46 42 39 35 30 26 25 24 19 13 10 7 4 2 1 1 0 0 0 0 0 0 0 0 1 1 1 0 0 0 0 0 0 0 0 0 0 0 0 0 0 0
41 40 38 36 33 30 28 28 26 21 15 11 7 4 2 2 1 0 0 0 0 0 0 0 1 2 2 2 1 0 0 0 0 0 0 0 0 0 0 0 0 0 0
34 32 30 31 31 29 29 29 27 22 17 11 6 3 1 1 1 0 0 0 0 0 0 0 1 2 2 2 1 0 0 0 0 0 0 0 0 0 0 0 0 0 0
30 26 24 25 26 26 27 27 25 21 17 11 6 3 1 0 0 0 0 0 0 0 0 1 1 1 1 1 1 0 0 0 0 0 0 0 0 0 0 0 0 0 0
29 26 23 22 22 22 23 23 22 20 17 11 6 3 1 0 0 0 0 0 0 0 0 0 0 0 0 0 0 0 0 0 0 0 0 0 0 0 0 0 0 0 0
27 27 25 23 21 21 21 21 19 17 14 10 6 3 1 0 0 0 0 0 0 0 0 0 0 0 0 0 0 0 0 0 0 0 0 0 0 0 0 0 0 0 0
27 27 25 23 21 21 21 19 17 13 10 9 7 4 2 1 0 0 0 0 0 0 0 0 0 0 0 0 0 0 0 0 0 0 0 0 0 0 0 0 0 0 0
29 26 24 22 22 21 20 18 15 13 12 11 9 5 3 2 1 1 1 2 2 2 1 1 0 0 0 0 0 0 0 0 0 0 0 0 0 0 0 0 0 0 0
33 30 26 24 24 24 21 18 16 16 16 14 10 7 6 4 3 3 4 5 5 5 4 3 2 1 0 0 0 0 0 0 0 0 0 0 0 0 0 0 0 0 0
40 37 31 27 27 27 24 20 17 16 16 13 10 8 7 6 5 5 5 6 6 6 6 5 5 3 1 0 0 0 0 0 0 0 0 0 0 0 0 0 0 0 0
45 41 34 29 29 28 26 21 17 15 14 11 8 7 6 5 4 4 4 4 4 4 4 5 5 4 2 1 0 0 0 0 0 0 0 0 0 0 0 0 0 0 0
41 39 34 30 27 26 23 18 15 14 13 9 6 6 5 4 3 4 4 4 3 4 4 3 3 3 2 1 0 0 0 0 0 0 0 0 0 0 0 0 0 0 0
33 34 33 28 24 22 19 15 13 12 11 8 6 6 4 3 3 3 4 3 4 4 4 2 1 1 1 0 0 0 0 0 0 0 0 0 0 0 0 0 0 0 0
29 30 30 26 21 17 15 13 11 9 8 7 6 5 4 3 3 3 3 3 3 4 3 1 0 0 0 0 0 0 0 0 0 0 0 0 0 0 0 0 0 0 0
27 27 26 21 17 14 12 10 9 7 6 6 5 4 3 3 3 3 3 3 3 3 3 2 1 0 0 0 0 0 0 0 0 0 0 0 0 0 0 0 0 0 0
21 22 20 16 14 11 8 7 5 5 6 6 6 4 3 3 3 3 3 3 3 3 3 3 2 0 0 0 0 0 0 0 0 0 0 0 0 0 0 0 0 0 0
14 14 13 11 10 8 6 4 4 4 7 8 7 5 4 3 3 3 3 3 3 3 3 3 1 0 0 0 0 0 0 0 0 0 0 0 0 0 0 0 0 0 0
9 9 8 7 6 5 4 4 5 6 8 9 7 5 4 3 3 3 3 3 3 3 3 2 1 0 0 0 0 0 0 0 0 0 0 0 0 0 0 0 0 0 0
5 7 6 5 4 4 4 5 6 7 9 9 6 4 3 3 3 2 2 2 2 2 1 1 0 0 0 0 0 0 0 0 0 0 0 0 0 0 0 0 0 0 0
3 5 6 5 4 5 5 5 6 8 9 8 5 4 3 3 3 1 1 1 1 1 0 0 0 0 0 0 0 0 0 0 0 0 0 0 0 0 0 0 0 0 0
Wind_Speed
7 8 9 10 10 9 10 10 9 8 7 5 4 4 4 4 4 4 6 6 5 5 5 4 4 3 3 3 4 3 2 1 2 3 2 2 1 2 3 4 4 6 6
7 8 8 9 10 10 9 9 9 9 8 5 4 4 4 4 4 3 4 6 6 5 5 5 4 4 3 3 3 3 2 1 2 3 2 1 3 3 2 2 4 5 5
12 10 9 9 9 9 10 10 9 9 8 6 4 4 3 3 2 3 3 4 5 5 5 5 4 4 4 3 3 3 4 2 1 2 4 3 3 2 2 2 3 4 4
11 10 10 10 10 9 9 9 8 8 7 7 7 7 6 4 4 4 3 4 4 5 5 5 5 4 3 3 3 3 3 4 2 0 1 2 4 3 1 2 2 3 4
12 11 10 9 9 8 8 8 8 7 7 7 8 7 5 4 3 3 4 4 3 4 5 5 5 4 3 4 3 3 3 3 3 2 1 1 1 2 3 1 2 2 2
10 9 7 6 5 6 7 7 8 7 7 7 7 8 7 6 6 5 5 4 3 3 4 5 5 4 4 4 4 4 4 3 3 2 2 2 2 2 2 2 2 2 2
10 9 9 8 7 7 7 7 8 7 7 7 7 7 7 7 8 6 5 5 3 3 5 5 5 4 4 5 4 4 3 4 3 3 2 2 2 2 3 3 2 1 2
9 10 10 9 8 8 8 8 8 7 7 7 6 6 6 5 5 5 5 5 4 4 5 5 5 5 5 5 4 3 3 3 3 3 3 2 1 2 2 3 3 1 1
10 10 9 8 7 8 8 8 8 7 7 7 7 6 6 5 5 5 4 4 4 4 5 5 5 5 5 5 4 3 3 3 2 2 2 2 1 1 1 2 3 4 2
8 8 8 8 7 7 6 6 7 7 7 7 6 6 5 6 5 4 4 4 5 4 5 5 5 5 4 4 4 3 3 3 2 2 2 1 1 1 1 1 1 2 4
9 8 7 7 7 6 7 6 6 6 6 6 6 5 5 5 5 4 5 4 4 4 4 5 4 4 4 4 4 3 3 4 2 2 2 2 2 1 1 1 2 1 3
8 8 8 8 7 7 7 6 6 6 6 6 5 5 4 4 4 3 3 4 4 3 4 4 4 4 4 3 4 4 3 4 3 3 3 2 2 2 1 2 2 1 2
7 7 7 8 7 7 7 6 6 6 6 5 5 5 4 4 4 3 2 3 3 3 3 3 3 3 3 3 3 3 3 4 3 2 3 2 3 2 2 2 2 1 2
8 8 7 7 7 7 7 6 5 5 6 6 5 5 5 4 4 3 3 3 4 4 3 3 3 3 3 3 3 4 5 5 5 4 3 2 3 3 2 2 2 3 4
8 9 9 8 7 7 6 6 6 5 6 6 6 5 5 5 5 4 4 4 4 4 4 4 3 3 3 3 5 6 7 6 6 5 4 5 7 7 5 4 3 4 4
7 8 8 8 8 8 8 7 6 6 6 7 6 5 6 6 5 5 5 5 5 5 5 5 5 5 4 6 8 7 7 7 6 6 5 6 7 10 12 12 10 7 5
7 8 8 8 8 8 8 8 7 7 7 7 6 6 6 6 6 6 6 6 6 6 6 5 6 6 6 9 10 10 7 6 5 5 5 5 6 8 8 11 13 12 12
8 8 7 7 6 6 7 7 7 8 7 7 6 6 7 7 7 7 6 6 5 6 6 6 6 7 7 9 10 11 8 7 6 5 5 6 5 6 7 8 8 7 7
7 7 7 6 6 6 7 9 8 8 7 7 6 6 7 8 8 7 7 6 6 7 6 5 6 7 6 8 10 10 7 7 7 6 6 6 6 8 9 8 7 7 6
6 7 7 7 7 6 7 9 8 8 7 6 6 6 7 8 8 8 7 6 7 7 7 7 6 6 6 8 10 9 6 7 6 5 6 8 8 9 9 7 7 7 4
8 8 8 7 6 7 8 8 7 6 6 7 7 7 7 7 8 8 7 7 7 8 8 8 6 6 6 7 9 8 5 6 6 5 4 5 10 10 10 8 5 5 4
7 7 8 6 6 7 9 9 7 6 7 8 8 7 7 7 7 9 7 7 8 8 7 7 7 5 5 6 7 8 8 7 7 5 4 5 9 10 9 7 8 9 7
7 7 9 8 6 5 7 9 6 6 8 8 8 8 8 7 7 8 8 6 6 6 6 6 6 5 4 6 9 10 10 10 7 5 8 8 9 8 7 9 9 7 5
7 6 8 8 7 6 6 7 7 7 9 10 8 8 8 8 7 5 5 6 5 6 6 6 6 5 4 4 4 5 6 9 8 6 7 9 9 7 7 6 6 4 4
6 6 7 8 7 6 6 6 7 9 10 9 8 8 8 8 8 7 5 5 4 4 6 5 5 6 5 3 5 5 4 4 4 5 4 4 4 5 5 4 4 4 4
6 7 7 7 7 7 7 6 7 9 10 9 8 7 7 7 7 8 8 13 10 12 11 9 8 5 7 9 9 9 9 9 8 7 5 4 4 4 4 4 3 3 4
Wind_Direction
166 157 154 153 151 154 155 159 159 159 156 156 151 144 154 164 165 172 170 166 165 159 152 160 162 154 154 163 156 136 133 139 125 88 35 345 321 223 205 200 195 204 206
147 150 151 153 156 159 159 161 164 164 167 165 159 155 152 159 167 170 168 171 170 168 166 160 164 159 149 148 150 138 136 136 133 127 108 14 338 318 240 208 201 204 201
159 158 158 158 159 164 166 169 169 167 169 161 141 126 111 102 130 162 169 180 175 173 164 165 163 163 155 162 168 156 146 157 185 150 145 153 215 278 305 244 216 200 197
160 161 161 163 169 171 169 168 169 168 166 160 157 156 160 168 182 175 175 178 174 172 167 165 166 163 162 172 180 162 152 147 164 199 192 174 161 159 272 310 270 220 206
164 165 166 170 168 167 167 167 166 168 167 165 164 162 165 168 162 155 164 173 179 175 171 169 163 165 170 175 171 153 154 156 162 172 178 151 129 139 146 237 291 296 242
162 159 157 158 161 164 166 164 164 170 169 166 166 170 169 163 158 166 172 175 181 181 180 173 170 173 175 181 180 169 164 167 158 159 158 155 160 182 161 187 233 253 270
159 156 159 166 171 171 170 166 165 169 170 169 173 175 173 168 172 176 180 177 182 189 193 180 177 179 183 186 180 171 174 171 167 171 171 171 183 171 160 159 198 236 284
160 165 169 172 175 174 170 168 170 170 172 175 178 176 172 171 175 180 180 186 192 197 188 180 183 187 185 185 175 172 180 172 177 184 176 172 189 171 168 167 158 145 333
164 168 168 167 170 171 172 173 172 172 178 180 178 173 171 171 177 183 184 189 194 196 188 185 186 188 183 179 166 172 180 166 174 181 176 172 180 158 158 157 160 155 166
161 164 164 163 164 167 165 166 173 179 182 179 178 175 176 177 178 181 190 196 194 188 179 185 182 181 181 177 170 172 176 172 185 177 170 169 168 128 110 124 126 143 154
164 163 165 165 161 159 160 164 172 173 175 173 171 168 171 174 173 183 194 189 181 174 172 177 177 176 177 174 169 178 176 175 184 183 170 181 161 137 119 100 105 119 132
161 158 163 163 163 162 164 168 169 172 171 164 159 161 161 160 163 172 183 176 172 166 167 164 168 175 173 172 172 180 174 167 166 174 159 167 143 119 106 98 99 117 133
157 160 164 162 165 163 164 166 170 170 161 151 149 151 151 154 158 156 145 141 147 146 149 146 152 158 159 162 169 157 142 136 136 145 141 143 125 114 94 93 86 82 87
158 159 163 163 163 163 163 161 162 159 150 144 145 150 152 151 146 138 128 122 128 125 124 127 138 139 139 141 137 127 119 109 96 86 92 99 114 122 113 93 87 93 88
157 164 163 159 159 159 158 155 155 151 146 141 143 148 146 138 129 123 118 111 110 110 104 104 104 105 109 116 123 123 119 113 103 88 81 83 89 87 90 97 98 102 102
159 158 155 155 159 162 160 153 151 151 142 141 143 140 134 128 122 117 109 102 98 95 93 92 92 87 93 99 110 119 116 114 111 105 93 85 79 82 79 79 79 86 105
160 162 161 161 162 159 154 152 149 140 135 135 134 132 129 122 117 113 104 102 99 92 87 85 89 90 91 99 107 111 112 107 105 106 104 94 85 83 83 75 70 66 69
160 155 155 152 149 142 140 136 131 130 132 131 132 133 129 122 117 113 109 104 99 97 93 88 91 94 90 97 102 103 96 90 85 89 98 101 92 89 95 89 76 66 56
150 140 142 141 135 136 138 131 128 128 127 127 131 132 129 126 122 118 115 111 105 99 94 92 93 94 88 92 102 106 100 93 82 77 80 94 94 93 99 96 90 76 59
124 120 120 119 126 132 129 125 129 128 131 134 131 128 126 124 122 119 114 108 105 102 97 86 80 90 92 93 101 109 108 102 94 80 73 76 87 88 93 97 98 90 73
109 114 116 121 131 132 124 120 121 126 128 122 117 116 118 120 119 113 111 110 107 102 97 90 77 74 80 87 96 108 112 117 108 96 82 73 80 83 84 87 90 100 103
102 108 115 113 115 124 126 124 126 128 121 117 114 112 115 118 114 113 110 110 111 107 103 98 87 68 63 76 95 101 102 108 106 102 95 88 84 80 79 80 82 85 86
106 107 114 109 102 108 126 129 133 127 119 112 109 107 103 101 107 115 117 114 111 112 111 108 102 86 70 72 82 92 97 98 96 101 105 95 86 76 70 71 74 75 77
106 109 114 115 113 109 113 124 126 122 118 115 112 111 108 102 93 93 104 113 116 119 120 119 115 106 89 77 77 85 91 88 88 88 86 79 73 69 66 62 56 56 69
108 113 118 121 122 116 115 118 123 123 118 116 115 112 108 107 95 81 66 88 90 124 131 129 126 127 118 109 113 112 102 104 105 100 78 68 65 63 60 56 53 51 52
112 114 116 120 123 122 118 118 122 127 125 122 119 116 114 110 109 105 82 57 75 88 92 100 109 97 109 114 104 98 99 102 105 92 86 82 82 84 84 80 64 54 53